{"data":{"norad_id":68939,"epoch":"2026-05-24T19:30:31.821984Z","epoch_age_seconds":81252,"freshness":"FRESH","line1":"1 68939U 26098W   26144.81286831 -.00016047  00000+0 -48641-3 0  9999","line2":"2 68939  51.8747 180.5886 0010716  65.0794 295.1304 15.32870251  3754","mean_motion":15.32870251,"eccentricity":0.0010716,"inclination_deg":51.8747,"raan_deg":180.5886,"arg_perigee_deg":65.0794,"mean_anomaly_deg":295.1304,"bstar":-0.00048641,"rev_number":375,"period_min":93.94141474535,"perigee_km":459.91823669219,"apogee_km":474.58927816351,"semimajor_km":6845.3907574278,"source":"CELESTRAK","updated_at":"2026-05-25T13:38:08.796867Z"}}